EN

Hourly Weather Almazar

Today, 18 January, Monday

Time Temperature Precipitation Wind Pressure Humidity
00:00 +7°C° 0 mm 3 mps 731 mmHg 42%
01:00 +7°C° 0 mm 3 mps 731 mmHg 42%
02:00 +7°C° 0 mm 3 mps 731 mmHg 42%
03:00 +6°C° 0 mm 4 mps 731 mmHg 41%
04:00 +6°C° 0 mm 4 mps 731 mmHg 40%
05:00 +6°C° 0 mm 5 mps 731 mmHg 39%
06:00 +6°C° 0 mm 5 mps 731 mmHg 39%
07:00 +6°C° 0 mm 5 mps 731 mmHg 39%
08:00 +6°C° 0 mm 5 mps 731 mmHg 39%
09:00 +7°C° 0 mm 6 mps 732 mmHg 36%
10:00 +9°C° 0 mm 6 mps 732 mmHg 33%
11:00 +11°C° 0 mm 7 mps 732 mmHg 29%
12:00 +11°C° 0 mm 7 mps 732 mmHg 28%
13:00 +12°C° 0 mm 7 mps 731 mmHg 26%
14:00 +14°C° 0 mm 7 mps 731 mmHg 25%
15:00 +12°C° 0 mm 7 mps 731 mmHg 26%
16:00 +13°C° 0 mm 6 mps 731 mmHg 28%
17:00 +11°C° 0 mm 6 mps 732 mmHg 29%
18:00 +10°C° 0 mm 6 mps 732 mmHg 31%
19:00 +9°C° 0 mm 5 mps 732 mmHg 33%
20:00 +9°C° 0 mm 5 mps 733 mmHg 35%
21:00 +8°C° 0 mm 4 mps 733 mmHg 36%
22:00 +8°C° 0 mm 4 mps 733 mmHg 37%
23:00 +9°C° 0 mm 3 mps 733 mmHg 38%

Tomorrow, 19 January, Tuesday

Time Temperature Precipitation Wind Pressure Humidity
00:00 +8°C° 0 mm 3 mps 733 mmHg 38%
01:00 +8°C° 0 mm 3 mps 733 mmHg 38%
02:00 +8°C° 0 mm 3 mps 733 mmHg 38%
03:00 +7°C° 0 mm 4 mps 733 mmHg 38%
04:00 +7°C° 0 mm 4 mps 733 mmHg 38%
05:00 +7°C° 0 mm 4 mps 733 mmHg 38%
06:00 +7°C° 0 mm 5 mps 733 mmHg 38%
07:00 +7°C° 0 mm 5 mps 734 mmHg 38%
08:00 +7°C° 0 mm 5 mps 734 mmHg 38%
09:00 +8°C° 0 mm 5 mps 734 mmHg 37%
10:00 +9°C° 0 mm 5 mps 734 mmHg 35%
11:00 +10°C° 0 mm 5 mps 735 mmHg 33%
12:00 +12°C° 0 mm 5 mps 735 mmHg 31%
13:00 +14°C° 0 mm 5 mps 735 mmHg 29%
14:00 +15°C° 0 mm 5 mps 734 mmHg 27%
15:00 +14°C° 0 mm 4 mps 735 mmHg 29%
16:00 +13°C° 0 mm 4 mps 735 mmHg 31%
17:00 +12°C° 0 mm 3 mps 735 mmHg 33%
18:00 +12°C° 0.1 mm 3 mps 735 mmHg 35%
19:00 +11°C° 0.1 mm 3 mps 736 mmHg 38%
20:00 +11°C° 0.1 mm 3 mps 736 mmHg 41%
21:00 +10°C° 0.2 mm 3 mps 737 mmHg 43%
22:00 +10°C° 0.2 mm 3 mps 737 mmHg 45%
23:00 +9°C° 0.2 mm 3 mps 737 mmHg 47%

Day after tomorrow, 20 January, Wednesday

Time Temperature Precipitation Wind Pressure Humidity
00:00 +9°C° 0.1 mm 3 mps 737 mmHg 47%
01:00 +9°C° 0.1 mm 3 mps 738 mmHg 48%
02:00 +8°C° 0.1 mm 4 mps 738 mmHg 48%
03:00 +8°C° 0 mm 4 mps 738 mmHg 48%
04:00 +7°C° 0 mm 4 mps 739 mmHg 49%
05:00 +7°C° 0 mm 5 mps 739 mmHg 50%
06:00 +7°C° 0 mm 5 mps 739 mmHg 52%
07:00 +7°C° 0 mm 5 mps 740 mmHg 55%
08:00 +5°C° 0 mm 6 mps 740 mmHg 57%
09:00 +8°C° 0 mm 7 mps 740 mmHg 54%
10:00 +9°C° 0 mm 7 mps 739 mmHg 51%
11:00 +10°C° 0 mm 8 mps 739 mmHg 48%
12:00 +11°C° 0 mm 8 mps 738 mmHg 46%
13:00 +12°C° 0 mm 9 mps 737 mmHg 44%
14:00 +12°C° 0 mm 9 mps 737 mmHg 42%
15:00 +12°C° 0 mm 9 mps 737 mmHg 44%
16:00 +11°C° 0 mm 8 mps 736 mmHg 45%
17:00 +11°C° 0 mm 8 mps 736 mmHg 47%
18:00 +10°C° 0 mm 7 mps 736 mmHg 48%
19:00 +9°C° 0 mm 7 mps 737 mmHg 50%
20:00 +9°C° 0 mm 6 mps 737 mmHg 51%
21:00 +9°C° 0 mm 7 mps 737 mmHg 51%
22:00 +9°C° 0 mm 7 mps 737 mmHg 50%
23:00 +8°C° 0 mm 7 mps 736 mmHg 49%

21 January, Thursday

Time Temperature Precipitation Wind Pressure Humidity
00:00 +9°C° 0 mm 7 mps 736 mmHg 48%
01:00 +9°C° 0 mm 8 mps 736 mmHg 46%
02:00 +9°C° 0 mm 8 mps 735 mmHg 45%
03:00 +7°C° 0 mm 9 mps 735 mmHg 45%
04:00 +7°C° 0 mm 9 mps 734 mmHg 46%
05:00 +7°C° 0 mm 10 mps 734 mmHg 46%
06:00 +7°C° 0 mm 10 mps 733 mmHg 46%
07:00 +6°C° 0 mm 10 mps 733 mmHg 47%
08:00 +6°C° 0 mm 10 mps 733 mmHg 47%
09:00 +7°C° 0 mm 10 mps 732 mmHg 44%
10:00 +9°C° 0 mm 10 mps 731 mmHg 40%
11:00 +11°C° 0 mm 10 mps 731 mmHg 36%
12:00 +12°C° 0 mm 10 mps 730 mmHg 32%
13:00 +13°C° 0 mm 10 mps 729 mmHg 29%
14:00 +15°C° 0 mm 9 mps 729 mmHg 25%
15:00 +13°C° 0 mm 8 mps 728 mmHg 26%
16:00 +12°C° 0 mm 7 mps 728 mmHg 27%
17:00 +13°C° 0 mm 5 mps 728 mmHg 29%
18:00 +12°C° 0 mm 5 mps 728 mmHg 31%
19:00 +11°C° 0 mm 4 mps 729 mmHg 33%
20:00 +10°C° 0 mm 3 mps 729 mmHg 36%
21:00 +10°C° 0 mm 2 mps 729 mmHg 38%
22:00 +9°C° 0 mm 2 mps 729 mmHg 40%
23:00 +9°C° 0 mm 2 mps 729 mmHg 42%

22 January, Friday

Time Temperature Precipitation Wind Pressure Humidity
00:00 +8°C° 0 mm 2 mps 729 mmHg 55%
01:00 +7°C° 0 mm 3 mps 729 mmHg 67%
02:00 +5°C° 0 mm 4 mps 730 mmHg 80%
03:00 +5°C° 0.8 mm 5 mps 730 mmHg 84%
04:00 +3°C° 0.8 mm 6 mps 731 mmHg 88%
05:00 +2°C° 0.8 mm 7 mps 732 mmHg 92%
06:00 -1°C° 1.7 mm 7 mps 734 mmHg 93%
07:00 -4°C° 1.7 mm 8 mps 736 mmHg 93%
08:00 -6°C° 1.7 mm 8 mps 738 mmHg 93%
09:00 -6°C° 0.8 mm 7 mps 739 mmHg 93%
10:00 -7°C° 0.8 mm 7 mps 741 mmHg 92%
11:00 -6°C° 0.8 mm 6 mps 743 mmHg 91%
12:00 -6°C° 0.5 mm 6 mps 744 mmHg 91%
13:00 -6°C° 0.5 mm 5 mps 744 mmHg 91%
14:00 -5°C° 0.5 mm 4 mps 745 mmHg 92%
15:00 -5°C° 0.2 mm 4 mps 746 mmHg 89%
16:00 -5°C° 0.2 mm 3 mps 746 mmHg 87%
17:00 -4°C° 0.2 mm 2 mps 747 mmHg 85%
18:00 -5°C° 0 mm 2 mps 748 mmHg 86%
19:00 -3°C° 0 mm 1 mps 749 mmHg 86%
20:00 -4°C° 0 mm 1 mps 750 mmHg 86%
21:00 -6°C° 0 mm 1 mps 750 mmHg 86%
22:00 -6°C° 0 mm 1 mps 750 mmHg 86%
23:00 -6°C° 0 mm 1 mps 751 mmHg 86%

23 January, Saturday

Time Temperature Precipitation Wind Pressure Humidity
00:00 -7°C° 0 mm 1 mps 750 mmHg 86%
01:00 -7°C° 0 mm 0 mps 750 mmHg 86%
02:00 -8°C° 0 mm 0 mps 750 mmHg 86%
03:00 -8°C° 0 mm 0 mps 750 mmHg 85%
04:00 -8°C° 0 mm 0 mps 750 mmHg 85%
05:00 -8°C° 0 mm 1 mps 750 mmHg 85%
06:00 -8°C° 0 mm 1 mps 750 mmHg 83%
07:00 -8°C° 0 mm 1 mps 750 mmHg 82%
08:00 -8°C° 0 mm 1 mps 751 mmHg 80%
09:00 -7°C° 0 mm 2 mps 750 mmHg 77%
10:00 -5°C° 0 mm 2 mps 750 mmHg 73%
11:00 -4°C° 0 mm 2 mps 750 mmHg 70%
12:00 -3°C° 0 mm 2 mps 749 mmHg 71%
13:00 -2°C° 0 mm 3 mps 749 mmHg 72%
14:00 -1°C° 0 mm 3 mps 748 mmHg 73%
15:00 -2°C° 0 mm 3 mps 748 mmHg 76%
16:00 -3°C° 0 mm 2 mps 748 mmHg 79%
17:00 -3°C° 0 mm 2 mps 749 mmHg 81%
18:00 -4°C° 0 mm 2 mps 749 mmHg 81%
19:00 -3°C° 0 mm 1 mps 749 mmHg 81%
20:00 -4°C° 0 mm 1 mps 749 mmHg 80%
21:00 -4°C° 0 mm 1 mps 749 mmHg 79%
22:00 -4°C° 0 mm 1 mps 749 mmHg 78%
23:00 -5°C° 0 mm 0 mps 749 mmHg 77%
Show more